Fredericksburg, TX

7:02 AM CST on December 15, 2017 (GMT -0600)
Fredericksburg

Weather History for KT82 - March, 2014

Change the Weather History Date:

Saturday, March 8, 2014

  Actual Average (KSAT) Record (KSAT)
Temperature  
Mean Temperature 50 °F -  
Max Temperature 59 °F 72 °F 90 °F (1918)
Min Temperature 41 °F 48 °F 26 °F (1947)
Degree Days  
Heating Degree Days 15    
Moisture  
Dew Point 45 °F    
Average Humidity 81    
Maximum Humidity 96    
Minimum Humidity 63    
Precipitation  
Precipitation 0.08 in - - ()
Sea Level Pressure  
Sea Level Pressure 30.06 in    
Wind  
Wind Speed 7 mph (NNE)    
Max Wind Speed 23 mph    
Max Gust Speed 26 mph    
Visibility 9 miles    
Events Rain    
Averages and records for this station are not official NWS values.
T = Trace of Precipitation, MM = Missing Value Source: NWS Daily Summary

Daily Weather History Graph

Daily Weather History Graph

Search for Another Location

Airport or City:

Trip Planner

Search our weather history database for the weather conditions in past years. The results will help you decide how hot, cold, wet, or windy it might be!

Date:

Astronomy

Mar. 08, 2014 Rise Set
Actual Time 6:53 AM CST 6:39 PM CST
Civil Twilight 6:29 AM CST 7:03 PM CST
Nautical Twilight 6:02 AM CST 7:31 PM CST
Astronomical Twilight 5:34 AM CST 7:59 PM CST
Moon 12:02 PM CST (3/8) 1:12 AM CST (3/8)
Length of Visible Light 12h 33m
Length of Day
11h 45m
First Quarter, 52% of the Moon is Illuminated
Mar 8
First Quarter
Mar 16
Full
Mar 23
Last Quarter
Mar 30
New
Apr 7
First Quarter

Hourly Weather History & Observations

Time (CST) Temp. Windchill Dew Point Humidity Pressure Visibility Wind Dir Wind Speed Gust Speed Precip Events Conditions
12:15 AM 53.6 °F - 48.2 °F 82% 29.90 in 10.0 mi South 4.6 mph - N/A   Clear
12:35 AM 53.1 °F - 48.4 °F 84% 29.90 in 10.0 mi South 6.9 mph - N/A   Clear
12:55 AM 52.7 °F - 48.4 °F 85% 29.90 in 10.0 mi South 5.8 mph - N/A   Clear
1:15 AM 52.2 °F - 48.4 °F 87% 29.89 in 10.0 mi South 4.6 mph - N/A   Clear
1:35 AM 51.4 °F - 48.2 °F 89% 29.89 in 10.0 mi South 4.6 mph - N/A   Clear
1:55 AM 51.8 °F - 48.6 °F 89% 29.88 in 10.0 mi SSE 3.5 mph - N/A   Clear
2:15 AM 51.1 °F - 48.4 °F 90% 29.88 in 10.0 mi Calm Calm - N/A   Clear
2:35 AM 50.0 °F - 47.1 °F 90% 29.87 in 10.0 mi Calm Calm - N/A   Clear
2:50 AM 47.5 °F - 46.2 °F 95% 29.87 in 7.0 mi Calm Calm - N/A   Clear
3:15 AM 48.0 °F - 46.9 °F 96% 29.87 in 7.0 mi Calm Calm - N/A   Mostly Cloudy
3:35 AM 52.0 °F - 50.4 °F 94% 29.87 in 10.0 mi Calm Calm - N/A   Overcast
3:55 AM 52.9 °F - 50.7 °F 92% 29.87 in 10.0 mi Calm Calm - N/A   Overcast
4:15 AM 54.5 °F - 52.2 °F 92% 29.87 in 10.0 mi SSW 5.8 mph - N/A   Overcast
4:35 AM 55.4 °F - 52.7 °F 91% 29.87 in 10.0 mi SSW 5.8 mph - N/A   Overcast
4:55 AM 55.9 °F - 52.9 °F 89% 29.87 in 10.0 mi South 6.9 mph - N/A   Overcast
5:15 AM 56.3 °F - 53.2 °F 89% 29.88 in 10.0 mi South 8.1 mph - N/A   Overcast
5:35 AM 56.8 °F - 53.6 °F 89% 29.89 in 10.0 mi SSW 6.9 mph - N/A   Overcast
5:55 AM 57.2 °F - 53.8 °F 88% 29.89 in 10.0 mi SSW 9.2 mph - N/A   Overcast
6:15 AM 57.4 °F - 54.1 °F 89% 29.90 in 10.0 mi SSW 8.1 mph - N/A   Overcast
6:35 AM 57.4 °F - 54.1 °F 89% 29.94 in 10.0 mi NW 3.5 mph - N/A   Overcast
6:55 AM 57.4 °F - 54.1 °F 89% 29.97 in 10.0 mi North 10.4 mph - N/A   Overcast
7:15 AM 57.2 °F - 53.8 °F 88% 29.98 in 10.0 mi North 9.2 mph - N/A   Overcast
7:30 AM 56.5 °F - 53.2 °F 89% 29.99 in 7.0 mi North 11.5 mph 16.1 mph N/A   Drizzle
7:55 AM 54.5 °F - 52.0 °F 91% 30.00 in 5.0 mi North 6.9 mph - N/A   Light Drizzle
8:15 AM 54.1 °F - 52.0 °F 92% 30.02 in 5.0 mi North 10.4 mph - N/A   Light Drizzle
8:35 AM 53.6 °F - 51.3 °F 92% 30.03 in 5.0 mi North 9.2 mph - N/A   Light Drizzle
8:55 AM 53.6 °F - 51.8 °F 94% 30.04 in 5.0 mi NNE 4.6 mph - N/A   Light Drizzle
9:15 AM 54.1 °F - 51.8 °F 92% 30.04 in 5.0 mi ENE 5.8 mph - N/A   Overcast
9:35 AM 55.0 °F - 52.7 °F 92% 30.05 in 7.0 mi NE 3.5 mph - N/A   Overcast
9:55 AM 55.8 °F - 52.5 °F 89% 30.05 in 10.0 mi NE 3.5 mph - N/A   Mostly Cloudy
10:15 AM 56.1 °F - 52.7 °F 88% 30.06 in 10.0 mi ENE 5.8 mph - N/A   Overcast
10:35 AM 57.2 °F - 53.2 °F 87% 30.06 in 10.0 mi NE 4.6 mph - N/A   Overcast
10:55 AM 57.2 °F - 52.9 °F 85% 30.07 in 10.0 mi NE 3.5 mph - N/A   Overcast
11:15 AM 58.1 °F - 53.2 °F 84% 30.07 in 10.0 mi NE 4.6 mph - N/A   Overcast
11:35 AM 59.5 °F - 53.6 °F 81% 30.07 in 10.0 mi ENE 5.8 mph - N/A   Overcast
11:55 AM 59.7 °F - 52.0 °F 76% 30.07 in 10.0 mi North 18.4 mph - N/A   Overcast
12:10 PM 55.2 °F - 47.7 °F 76% 30.08 in 10.0 mi North 15.0 mph - N/A   Overcast
12:35 PM 53.8 °F - 43.9 °F 69% 30.08 in 10.0 mi North 15.0 mph 23.0 mph N/A   Overcast
12:55 PM 53.8 °F - 42.4 °F 65% 30.08 in 10.0 mi North 17.3 mph - N/A   Overcast
1:15 PM 53.6 °F - 41.4 °F 63% 30.08 in 10.0 mi NNW 16.1 mph - N/A   Overcast
1:35 PM 52.7 °F - 41.2 °F 65% 30.08 in 10.0 mi North 13.8 mph 21.9 mph N/A   Overcast
1:55 PM 52.3 °F - 40.5 °F 64% 30.08 in 10.0 mi NNW 16.1 mph - N/A   Overcast
2:15 PM 51.8 °F - 40.1 °F 64% 30.08 in 10.0 mi North 17.3 mph - N/A   Overcast
2:35 PM 51.6 °F - 39.4 °F 63% 30.07 in 10.0 mi North 18.4 mph 23.0 mph N/A   Overcast
2:55 PM 50.4 °F - 38.5 °F 64% 30.08 in 10.0 mi North 23.0 mph 26.5 mph N/A   Overcast
3:15 PM 49.5 °F - 37.8 °F 64% 30.09 in 10.0 mi North 16.1 mph 24.2 mph N/A   Overcast
3:35 PM 48.6 °F - 37.0 °F 64% 30.09 in 10.0 mi North 16.1 mph 21.9 mph N/A   Overcast
3:55 PM 47.8 °F - 37.4 °F 67% 30.11 in 7.0 mi North 10.4 mph 19.6 mph N/A   Light Drizzle
4:15 PM 46.0 °F 39.9 °F 39.6 °F 78% 30.11 in 5.0 mi NNW 13.8 mph 18.4 mph N/A Rain Light Rain
4:35 PM 45.5 °F 41.8 °F 40.5 °F 83% 30.10 in 5.0 mi North 6.9 mph - 0.03 in Rain Light Rain
4:55 PM 46.0 °F 41.0 °F 40.1 °F 80% 30.11 in 7.0 mi North 10.4 mph - 0.03 in Rain Light Rain
5:15 PM 45.9 °F 40.4 °F 40.8 °F 83% 30.12 in 7.0 mi NE 11.5 mph 16.1 mph N/A Rain Light Rain
5:35 PM 45.0 °F 39.7 °F 39.4 °F 81% 30.14 in 7.0 mi NNE 10.4 mph - N/A Rain Light Rain
5:55 PM 45.1 °F 40.8 °F 39.9 °F 82% 30.14 in 7.0 mi North 8.1 mph - N/A Rain Light Rain
6:15 PM 44.8 °F 39.9 °F 40.1 °F 84% 30.14 in 7.0 mi North 9.2 mph - N/A   Overcast
6:35 PM 45.3 °F 41.1 °F 40.3 °F 83% 30.16 in 7.0 mi North 8.1 mph - N/A   Overcast
6:55 PM 45.5 °F 42.5 °F 40.3 °F 82% 30.17 in 7.0 mi North 5.8 mph - N/A   Overcast
7:15 PM 45.9 °F 43.6 °F 40.1 °F 80% 30.18 in 10.0 mi NNE 4.6 mph - N/A   Overcast
7:35 PM 46.2 °F 42.2 °F 39.7 °F 78% 30.19 in 10.0 mi North 8.1 mph - N/A   Light Drizzle
7:55 PM 45.5 °F 39.6 °F 39.9 °F 81% 30.20 in 10.0 mi NNW 12.7 mph - N/A Rain Light Rain
8:15 PM 44.8 °F 39.9 °F 38.1 °F 77% 30.22 in 7.0 mi North 9.2 mph - 0.05 in Rain Light Rain
8:35 PM 44.6 °F 37.8 °F 37.2 °F 75% 30.22 in 10.0 mi North 15.0 mph 19.6 mph 0.05 in Rain Light Rain
8:55 PM 44.2 °F 38.0 °F 36.5 °F 74% 30.23 in 10.0 mi North 12.7 mph 17.3 mph 0.05 in   Overcast
9:15 PM 44.2 °F 37.6 °F 35.1 °F 70% 30.24 in 10.0 mi NNE 13.8 mph 17.3 mph N/A   Overcast
9:35 PM 43.9 °F 37.2 °F 33.6 °F 67% 30.26 in 10.0 mi North 13.8 mph 18.4 mph N/A   Overcast
9:55 PM 43.3 °F 38.1 °F 32.7 °F 66% 30.26 in 10.0 mi NNE 9.2 mph 21.9 mph N/A   Overcast
10:15 PM 43.0 °F 35.1 °F 32.7 °F 67% 30.25 in 10.0 mi North 17.3 mph 24.2 mph N/A   Overcast
10:35 PM 42.8 °F 37.0 °F 32.4 °F 67% 30.26 in 10.0 mi NNE 10.4 mph 17.3 mph N/A   Overcast
10:55 PM 42.8 °F 35.8 °F 32.4 °F 67% 30.26 in 10.0 mi NE 13.8 mph 17.3 mph N/A   Overcast
11:15 PM 42.3 °F 35.1 °F 32.4 °F 68% 30.27 in 10.0 mi NNE 13.8 mph 17.3 mph N/A   Overcast
11:35 PM 41.9 °F 35.4 °F 32.4 °F 69% 30.27 in 10.0 mi North 11.5 mph 16.1 mph N/A   Overcast
11:55 PM 41.4 °F 34.7 °F 32.0 °F 69% 30.26 in 10.0 mi NNE 11.5 mph 18.4 mph N/A   Overcast